[Iaude] MPEC B50: 2024 BZ [a=1.79,e=0.44,i=0.7,H=27.3]

mpec at marsden.cfa.harvard.edu mpec at marsden.cfa.harvard.edu
Fri Jan 19 16:07:14 EST 2024


M.P.E.C. 2024-B50                              Issued 2024 January 19, 21:05 UT

     The Minor Planet Electronic Circulars contain information on unusual
         minor planets, routine data on comets and natural satellites,
         and occasional editorial announcements.  They are published
    on behalf of Division F of the International Astronomical Union by the
          Minor Planet Center, Smithsonian Astrophysical Observatory,
                          Cambridge, MA 02138, U.S.A.
			  
             Prepared using the Tamkin Foundation Computer Network

                              MPC at CFA.HARVARD.EDU
            URL https://www.minorplanetcenter.net/    ISSN 1523-6714

                                    2024 BZ                                     


Observations:
     K24B00Z*1C2024 01 19.21424507 50 22.924+23 44 56.26         19.89GVEB050G96
     K24B00Z 1C2024 01 19.21984907 50 31.225+23 44 22.20               VEB050G96
     K24B00Z 1C2024 01 19.22545407 50 39.577+23 43 47.60         19.48GVEB050G96
     K24B00Z 1C2024 01 19.23106107 50 47.893+23 43 13.19         19.30GVEB050G96
     K24B00Z KC2024 01 19.30485607 52 36.232+23 35 26.27         19.64GVEB050I52
     K24B00Z KC2024 01 19.30536407 52 36.970+23 35 22.96         19.57GVEB050I52
     K24B00Z KC2024 01 19.30588307 52 37.736+23 35 19.75         19.54GVEB050I52
     K24B00Z KC2024 01 19.30639107 52 38.474+23 35 16.08         19.51GVEB050I52
     K24B00Z  C2024 01 19.55888007 58 56.453+23 08 10.87         19.55wXEB050F52
     K24B00Z  C2024 01 19.58391207 59 32.598+23 05 11.99         19.64wXEB050F52
     K24B00Z  C2024 01 19.59646107 59 50.833+23 03 41.58         19.68wXEB050F52
     K24B00Z 1C2024 01 19.80038 08 05 28.90 +22 38 37.5          20.2 VXEB050033
     K24B00Z 1C2024 01 19.80061 08 05 29.22 +22 38 35.8          20.1 VXEB050033
     K24B00Z 1C2024 01 19.80085 08 05 29.56 +22 38 34.3          20.5 VXEB050033
     K24B00Z 1C2024 01 19.80126 08 05 30.14 +22 38 32.0          20.5 VXEB050033
     K24B00Z KB2024 01 19.82826608 06 12.22 +22 35 54.7          19.2 GXEB050I93
     K24B00Z KB2024 01 19.83092508 06 16.06 +22 35 38.6          19.6 GXEB050I93
     K24B00Z KB2024 01 19.83357408 06 19.90 +22 35 22.2          19.9 GXEB050I93

Observer details:
033 Karl Schwarzschild Observatory, Tautenburg.  Observers S. Melnikov, C.
    Hogner, F. Ludwig, M. Hartmann, B. Stecklum.  Measurer B. Stecklum.
    1.34-m f/3 Schmidt + CCD.
F52 Pan-STARRS 2, Haleakala.  Observers J. Herman, T. Lowe, P. Minguez, A.
    Schultz, I. Smith.  Measurers K. Chambers, T. de Boer, J. Fairlamb, H.
    Gao, M. Huber, C.-C. Lin, E. Magnier, Y. Ramanjooloo, R. Wainscoat, R.
    Weryk.  1.8-m Ritchey-Chretien + CCD.
G96 Mt. Lemmon Survey.  Observer A. R. Gibbs.  Measurers T. Beuden, V. F.
    Carvajal, D. Fay, J. B. Fazekas, D. C. Fuls, A. R. Gibbs, A. D. Grauer, H.
    Groeller, J. K. Hogan, R. A. Kowalski, S. M. Larson, G. J. Leonard, D.
    Rankin, R. L. Seaman, F. C. Shelly, K. W. Wierzchos.  1.5-m reflector +
    10K CCD.
I52 Steward Observatory, Mt. Lemmon Station.  Observer R. A. Kowalski.
    Measurers E. C. Beshore, D. Fay, J. B. Fazekas, D. C. Fuls, A. R. Gibbs,
    A. D. Grauer, H. Groeller, J. K. Hogan, R. A. Kowalski, S. M. Larson, G.
    J. Leonard, D. Rankin, R. L. Seaman, F. C. Shelly, K. W. Wierzchos.  1.0-m
    prime focus + CCD.
I93 St Pardon de Conques.  Observer F. Losse.  0.40-m f/3.7 reflector + CMO.

Orbital elements:
2024 BZ                                                  Earth MOID = 0.0203 AU
Epoch 2023 Sept. 13.0 TT = JDT 2460200.5                Veres                   
M 311.69028              (2000.0)            P               Q                  
n   0.41057130     Peri.  161.93118     -0.27291309     -0.96198109             
a   1.7928488      Node   303.90527     +0.88108098     -0.24553812             
e   0.4397717      Incl.    0.72676     +0.38628326     -0.11959687             
P   2.40           H   27.32          G   0.15           U   8                  
Residuals in seconds of arc
240119 G96  0.6+  0.1-    240119 I52  0.0   0.2+    240119 033  0.2+  0.3-
240119 G96  0.1-  0.0     240119 I52  0.0   0.2-    240119 033  0.1+  0.3-
240119 G96  0.1+  0.2-    240119 F52  0.0   0.1-    240119 033  0.1-  0.0
240119 G96  0.0   0.1-    240119 F52  0.0   0.1-    240119 I93  0.4-  0.1+
240119 I52  0.1-  0.1+    240119 F52  0.0   0.2-    240119 I93  0.3-  0.6+
240119 I52  0.1-  0.0     240119 033  0.4+  0.0     240119 I93  0.0   0.6+

Ephemeris:
2024 BZ                  a,e,i = 1.79, 0.44, 1                   q = 1.0044
Date    TT    R. A. (2000) Decl.     Delta      r    Elong.  Phase     V
2023 12 20    01 26 21.4 +14 59 02   0.08950 1.0288   117.9    57.7    24.2
...
2024 01 04    02 21 37.5 +20 38 59   0.04762 1.0058   117.0    60.6    22.9
...
2024 01 12    04 17 34.4 +27 31 36   0.02972 1.0051   136.1    42.8    21.4
...
2024 01 18    07 15 57.0 +25 48 03   0.02661 1.0100   169.4    10.3    20.1
2024 01 19    07 44 25.5 +24 08 57   0.02746 1.0112   174.8     5.0    20.0
2024 01 20    08 10 09.2 +22 19 32   0.02868 1.0126   177.7     2.3    19.9
...
2024 01 26    09 48 56.1 +12 31 56   0.04129 1.0234   160.0    19.2    21.4
...
2024 02 03    10 39 44.3 +06 03 11   0.06487 1.0442   154.0    24.4    22.6
...
2024 02 18    11 05 32.4 +02 31 15   0.1178  1.1006   161.7    16.3    23.8

M. P. C. Staff               (C) Copyright 2024 MPC           M.P.E.C. 2024-B50





More information about the Iaude mailing list